Location: Culleoka
(33.1312°N, 96.4919°W)
Time: 10:49:27
(UTC+00:00)

Okean 1 - Pass Details

Date: 07 July 2022
Orbit: 532 x 553 km, 82.5° (Epoch: 14 August)

Event Time Altitude Azimuth Distance (km) Brightness Sun altitude
Rises 08:32:08 0° 10° (N) 2,683 7.9 -27.2°
Reaches altitude 10° 08:34:41 10° 26° (NNE) 1,786 6.9 -27.0°
Maximum altitude 08:37:45 22° 78° (ENE) 1,210 5.5 -26.6°
Enters shadow 08:38:53 19° 102° (ESE) 1,303 5.4 -26.5°
